Hourly Data Report for December 29, 2002

TORONTO CITY
ONTARIO

43°40'00.000" N
79°24'00.000" W
112.50 m
6158355
71508
XTO

Download Data

Hourly Data (December 2002)
Hourly Data Report for December 29, 2002
TIME
LST
Temp Definition
°C
Dew Point Definition
°C
Rel Hum Definition
%
Precip. Amount Definition
mm

Wind Dir Definition
10's deg

Wind Spd Definition
km/h
Visibility Definition
km
Stn Press Definition
kPa
Hmdx Definition


Wind Chill Definition


Weather Definition


00:00 0.7 -1.0 88   LegendMM LegendMM LegendMM 99.78     LegendNANA
01:00 0.1 -1.7 88   LegendMM LegendMM LegendMM 99.83     LegendNANA
02:00 1.0 -1.2 85   LegendMM LegendMM LegendMM 99.90     LegendNANA
03:00 0.9 -1.4 85   LegendMM LegendMM LegendMM 100.00     LegendNANA
04:00 1.0 -1.3 85   LegendMM LegendMM LegendMM 100.07     LegendNANA
05:00 1.2 -1.1 85   LegendMM LegendMM LegendMM 100.10     LegendNANA
06:00 0.9 -1.3 85   LegendMM LegendMM LegendMM 100.16     LegendNANA
07:00 1.1 -1.1 85   LegendMM LegendMM LegendMM 100.25     LegendNANA
08:00 1.2 -1.6 82   LegendMM LegendMM LegendMM 100.34     LegendNANA
09:00 1.4 -1.9 79   LegendMM LegendMM LegendMM 100.45     LegendNANA
10:00 1.8 -2.2 75   LegendMM LegendMM LegendMM 100.53     LegendNANA
11:00 2.3 -2.7 69   LegendMM LegendMM LegendMM 100.57     LegendNANA
12:00 3.0 -3.2 64   LegendMM LegendMM LegendMM 100.56     LegendNANA
13:00 2.9 -4.4 59   LegendMM LegendMM LegendMM 100.58     LegendNANA
14:00 3.0 -4.1 60   LegendMM LegendMM LegendMM 100.60     LegendNANA
15:00 3.1 -4.0 60   LegendMM LegendMM LegendMM 100.64     LegendNANA
16:00 3.1 -4.4 58   LegendMM LegendMM LegendMM 100.72     LegendNANA
17:00 2.6 -4.0 62   LegendMM LegendMM LegendMM 100.79     LegendNANA
18:00 1.8 -4.2 64   LegendMM LegendMM LegendMM 100.84     LegendNANA
19:00 1.5 -5.1 61   LegendMM LegendMM LegendMM 100.87     LegendNANA
20:00 1.0 -4.9 65   LegendMM LegendMM LegendMM 100.90     LegendNANA
21:00 0.6 -4.0 71   LegendMM LegendMM LegendMM 100.94     LegendNANA
22:00 0.8 -3.6 72   LegendMM LegendMM LegendMM 100.92     LegendNANA
23:00 1.0 -4.3 68   LegendMM LegendMM LegendMM 100.95     LegendNANA

Notes on Data Quality.

Legend

  • E = Estimated
  • M = Missing
  • NA = Not Available*
  • [empty] = Indicates an unobserved value
Date modified: